Home   Weather   Belo Horizonte   Past weeks

Flag for Brazil Past Weather in Belo Horizonte, Minas Gerais, Brazil — Yesterday and Last 2 Weeks

Now
70 °F

Passing clouds.


Feels Like: 70 °F
Forecast: N/A
Wind: 14 mph from Southeast

Location: Belo Horizonte Airport

Current Time: May 23, 2017 at 7:48:35 pm

Latest Report: May 23, 2017 at 6:00 pm


Visibility: N/A

Pressure: 30.15 "Hg (27.28 "Hg at 860m altitude)

Humidity: 73%

Dew Point: 61 °F

Location of Belo HorizonteLocation

Past Weather in Belo Horizonte — Graph

°F

Belo Horizonte Temperature Yesterday

Maximum temperature yesterday: 79 °F (at 2:00 pm)
Minimum temperature yesterday: 64 °F (at 4:00 am)
Average temperature yesterday: 70 °F

High & Low Weather Summary for the Past Weeks

 TemperatureHumidityPressure
High82 °F (May 10, 2:00 pm)100% (May 16, 5:00 am)30.21 "Hg (May 16, 5:00 am)
Low55 °F (May 12, 6:00 am)30% (May 10, 2:00 pm)29.95 "Hg (May 14, 2:00 pm)
Average68 °F76%30.08 "Hg
* Reported May 8 6:00 pm — May 23 6:00 pm, Belo Horizonte. Weather by CustomWeather, © 2017

Note: Actual official high and low records may vary slightly from our data, if they occured in-between our weather recording intervals... More about our weather records

Advertising

Belo Horizonte Weather History for the Previous 24 Hours

Scroll right to see more
 ConditionsComfort  
Time TempWeatherWind HumidityBarometerVisibility
6:00 pm
Tue, May 23
70 °FPassing clouds.14 mph73%30.15 "HgN/A
5:00 pm73 °FPassing clouds.12 mph69%30.12 "HgN/A
4:00 pm75 °FPassing clouds.13 mph65%30.09 "HgN/A
3:00 pm77 °FPassing clouds.9 mph61%30.12 "HgN/A
2:00 pm77 °FScattered clouds.9 mph57%30.12 "HgN/A
1:00 pm77 °FScattered clouds.6 mph61%30.15 "HgN/A
12:00 pm75 °FPassing clouds.9 mph65%30.18 "HgN/A
11:00 am73 °FPassing clouds.8 mph69%30.18 "HgN/A
10:00 am72 °FSunny.12 mph69%30.21 "Hg10 mi
9:00 am68 °FSunny.9 mph78%30.18 "Hg10 mi
8:00 am66 °FSunny.7 mph83%30.18 "Hg10 mi
7:00 am63 °FSunny.7 mph94%30.15 "Hg10 mi
6:00 am64 °FPassing clouds.8 mph83%30.15 "HgN/A
5:00 am64 °FPassing clouds.5 mph94%30.09 "HgN/A
4:00 am66 °FPassing clouds.8 mph88%30.12 "HgN/A
3:00 am66 °FPassing clouds.3 mph94%30.12 "HgN/A
2:00 am68 °FPassing clouds.6 mph88%30.12 "HgN/A
1:00 am68 °FPassing clouds.7 mph88%30.15 "HgN/A
12:00 am68 °FPassing clouds.5 mph94%30.15 "HgN/A
11:00 pm
Mon, May 22
68 °FPassing clouds.2 mph94%30.15 "HgN/A
10:00 pm70 °FPassing clouds.5 mph83%30.12 "HgN/A
9:00 pm68 °FPassing clouds.7 mph88%30.12 "HgN/A
8:00 pm70 °FPassing clouds.6 mph83%30.09 "HgN/A
7:00 pm72 °FPassing clouds.3 mph78%30.09 "HgN/A
Weather by CustomWeather, © 2017

See weather overviewHow to use our weather pages